Location: Bezawada
(16.5136°N, 80.6297°E)
Time: 18:06:14
(UTC+00:00)

Okean 1-7 - Pass Details

Date: 27 February 2020
Orbit: 592 x 618 km, 82.5° (Epoch: 27 March)

Event Time Altitude Azimuth Distance (km) Brightness Sun altitude
Rises 13:59:03 0° 356° (N) 2,858 6.5 -18.8°
Reaches altitude 10° 14:01:16 10° 356° (N) 1,958 5.6 -19.3°
Maximum altitude 14:05:36 87° 88° (E) 616 2.9 -20.3°
Drops below altitude 10° 14:09:58 10° 175° (S) 1,967 5.6 -21.4°
Sets 14:12:11 0° 176° (S) 2,873 6.5 -21.9°
